Hourly Weather Rudnya-Horodyshche

Today, 21 April, Wednesday

Time Temperature Precipitation Wind Pressure Humidity
00:00 +5°C° 0 mm 2 mps 737 mmHg 87%
01:00 +5°C° 0 mm 2 mps 737 mmHg 88%
02:00 +5°C° 0 mm 2 mps 737 mmHg 88%
03:00 +5°C° 0 mm 2 mps 737 mmHg 89%
04:00 +5°C° 0 mm 2 mps 737 mmHg 90%
05:00 +4°C° 0 mm 2 mps 737 mmHg 91%
06:00 +4°C° 0 mm 3 mps 738 mmHg 87%
07:00 +5°C° 0 mm 3 mps 738 mmHg 82%
08:00 +7°C° 0 mm 3 mps 738 mmHg 78%
09:00 +8°C° 0 mm 3 mps 739 mmHg 72%
10:00 +9°C° 0 mm 3 mps 739 mmHg 66%
11:00 +10°C° 0 mm 3 mps 739 mmHg 60%
12:00 +11°C° 0.1 mm 4 mps 739 mmHg 59%
13:00 +12°C° 0.1 mm 4 mps 739 mmHg 58%
14:00 +12°C° 0.1 mm 4 mps 739 mmHg 56%
15:00 +12°C° 0.4 mm 4 mps 739 mmHg 60%
16:00 +12°C° 0.4 mm 4 mps 739 mmHg 64%
17:00 +11°C° 0.4 mm 4 mps 739 mmHg 68%
18:00 +10°C° 0.2 mm 4 mps 739 mmHg 73%
19:00 +9°C° 0.2 mm 3 mps 739 mmHg 78%
20:00 +8°C° 0.2 mm 3 mps 739 mmHg 82%
21:00 +8°C° 0 mm 3 mps 739 mmHg 83%
22:00 +8°C° 0 mm 3 mps 739 mmHg 84%
23:00 +6°C° 0 mm 4 mps 740 mmHg 85%

Tomorrow, 22 April, Thursday

Time Temperature Precipitation Wind Pressure Humidity
00:00 +7°C° 0 mm 3 mps 740 mmHg 85%
01:00 +7°C° 0 mm 3 mps 740 mmHg 86%
02:00 +7°C° 0 mm 3 mps 740 mmHg 86%
03:00 +7°C° 0 mm 3 mps 740 mmHg 87%
04:00 +7°C° 0 mm 3 mps 740 mmHg 88%
05:00 +7°C° 0 mm 3 mps 740 mmHg 88%
06:00 +8°C° 0 mm 3 mps 740 mmHg 83%
07:00 +10°C° 0 mm 4 mps 740 mmHg 78%
08:00 +11°C° 0 mm 4 mps 741 mmHg 73%
09:00 +12°C° 0.1 mm 5 mps 741 mmHg 68%
10:00 +13°C° 0.1 mm 5 mps 741 mmHg 63%
11:00 +14°C° 0.1 mm 6 mps 741 mmHg 58%
12:00 +14°C° 0.3 mm 6 mps 741 mmHg 59%
13:00 +14°C° 0.3 mm 5 mps 740 mmHg 61%
14:00 +14°C° 0.3 mm 5 mps 740 mmHg 63%
15:00 +14°C° 0.1 mm 5 mps 740 mmHg 61%
16:00 +14°C° 0.1 mm 5 mps 740 mmHg 60%
17:00 +15°C° 0.1 mm 5 mps 739 mmHg 58%
18:00 +13°C° 0.9 mm 5 mps 740 mmHg 69%
19:00 +10°C° 0.9 mm 5 mps 740 mmHg 79%
20:00 +8°C° 0.9 mm 4 mps 741 mmHg 89%
21:00 +7°C° 0.4 mm 4 mps 741 mmHg 91%
22:00 +8°C° 0.4 mm 3 mps 741 mmHg 92%
23:00 +7°C° 0.4 mm 2 mps 741 mmHg 94%

Day after tomorrow, 23 April, Friday

Time Temperature Precipitation Wind Pressure Humidity
00:00 +7°C° 0.2 mm 2 mps 741 mmHg 93%
01:00 +7°C° 0.2 mm 3 mps 741 mmHg 92%
02:00 +5°C° 0.2 mm 3 mps 741 mmHg 92%
03:00 +5°C° 0.6 mm 3 mps 741 mmHg 91%
04:00 +6°C° 0.6 mm 2 mps 741 mmHg 91%
05:00 +5°C° 0.6 mm 2 mps 741 mmHg 90%
06:00 +5°C° 0.7 mm 2 mps 741 mmHg 88%
07:00 +5°C° 0.7 mm 2 mps 741 mmHg 86%
08:00 +4°C° 0.7 mm 3 mps 742 mmHg 84%
09:00 +4°C° 0.6 mm 3 mps 742 mmHg 80%
10:00 +6°C° 0.6 mm 2 mps 742 mmHg 76%
11:00 +6°C° 0.6 mm 2 mps 742 mmHg 72%
12:00 +7°C° 0.1 mm 3 mps 742 mmHg 66%
13:00 +7°C° 0.1 mm 3 mps 742 mmHg 60%
14:00 +8°C° 0.1 mm 3 mps 742 mmHg 53%
15:00 +7°C° 0.2 mm 4 mps 742 mmHg 57%
16:00 +7°C° 0.2 mm 4 mps 741 mmHg 61%
17:00 +7°C° 0.2 mm 5 mps 741 mmHg 65%
18:00 +5°C° 0.1 mm 4 mps 741 mmHg 70%
19:00 +4°C° 0.1 mm 3 mps 742 mmHg 74%
20:00 +3°C° 0.1 mm 3 mps 742 mmHg 78%
21:00 +2°C° 0 mm 3 mps 742 mmHg 79%
22:00 +2°C° 0 mm 3 mps 742 mmHg 81%
23:00 +1°C° 0 mm 3 mps 742 mmHg 82%

24 April, Saturday

Time Temperature Precipitation Wind Pressure Humidity
00:00 +1°C° 0 mm 3 mps 742 mmHg 83%
01:00 +1°C° 0 mm 3 mps 742 mmHg 85%
02:00 0°C° 0 mm 3 mps 742 mmHg 86%
03:00 0°C° 0 mm 3 mps 742 mmHg 89%
04:00 0°C° 0 mm 3 mps 742 mmHg 91%
05:00 0°C° 0 mm 3 mps 742 mmHg 93%
06:00 0°C° 0 mm 4 mps 742 mmHg 87%
07:00 +1°C° 0 mm 5 mps 743 mmHg 81%
08:00 +2°C° 0 mm 6 mps 743 mmHg 75%
09:00 +3°C° 0.2 mm 6 mps 743 mmHg 68%
10:00 +4°C° 0.2 mm 6 mps 743 mmHg 60%
11:00 +5°C° 0.2 mm 7 mps 743 mmHg 52%
12:00 +5°C° 0.1 mm 7 mps 743 mmHg 52%
13:00 +5°C° 0.1 mm 7 mps 743 mmHg 51%
14:00 +5°C° 0.1 mm 7 mps 743 mmHg 51%
15:00 +5°C° 0.2 mm 7 mps 743 mmHg 53%
16:00 +5°C° 0.2 mm 6 mps 742 mmHg 54%
17:00 +5°C° 0.2 mm 6 mps 742 mmHg 56%
18:00 +3°C° 0 mm 5 mps 743 mmHg 62%
19:00 +3°C° 0 mm 4 mps 743 mmHg 68%
20:00 +2°C° 0 mm 3 mps 743 mmHg 74%
21:00 +1°C° 0 mm 3 mps 743 mmHg 75%
22:00 +1°C° 0 mm 3 mps 743 mmHg 77%
23:00 0°C° 0 mm 3 mps 743 mmHg 78%

25 April, Sunday

Time Temperature Precipitation Wind Pressure Humidity
00:00 -1°C° 0 mm 4 mps 743 mmHg 78%
01:00 0°C° 0 mm 4 mps 743 mmHg 78%
02:00 0°C° 0 mm 5 mps 743 mmHg 79%
03:00 0°C° 0 mm 5 mps 743 mmHg 82%
04:00 0°C° 0 mm 5 mps 742 mmHg 86%
05:00 -1°C° 0 mm 5 mps 742 mmHg 90%
06:00 0°C° 0 mm 5 mps 742 mmHg 83%
07:00 +1°C° 0 mm 5 mps 742 mmHg 77%
08:00 +1°C° 0 mm 5 mps 743 mmHg 70%
09:00 +2°C° 0 mm 5 mps 743 mmHg 64%
10:00 +3°C° 0 mm 5 mps 743 mmHg 58%
11:00 +5°C° 0 mm 5 mps 743 mmHg 53%
12:00 +4°C° 0 mm 6 mps 743 mmHg 50%
13:00 +5°C° 0 mm 6 mps 742 mmHg 48%
14:00 +5°C° 0 mm 6 mps 742 mmHg 46%
15:00 +5°C° 0.1 mm 6 mps 742 mmHg 48%
16:00 +5°C° 0.1 mm 6 mps 742 mmHg 50%
17:00 +4°C° 0.1 mm 6 mps 742 mmHg 53%
18:00 +3°C° 0.1 mm 5 mps 742 mmHg 60%
19:00 +3°C° 0.1 mm 4 mps 742 mmHg 67%
20:00 +2°C° 0.1 mm 3 mps 742 mmHg 74%
21:00 +1°C° 0 mm 3 mps 742 mmHg 76%
22:00 +1°C° 0 mm 3 mps 742 mmHg 79%
23:00 0°C° 0 mm 3 mps 742 mmHg 81%

26 April, Monday

Time Temperature Precipitation Wind Pressure Humidity
00:00 0°C° 0 mm 3 mps 742 mmHg 82%
01:00 0°C° 0 mm 3 mps 742 mmHg 84%
02:00 -1°C° 0 mm 3 mps 742 mmHg 86%
03:00 -1°C° 0 mm 3 mps 742 mmHg 88%
04:00 -1°C° 0 mm 3 mps 742 mmHg 89%
05:00 -1°C° 0 mm 3 mps 741 mmHg 91%
06:00 0°C° 0.2 mm 3 mps 742 mmHg 88%
07:00 +1°C° 0.2 mm 3 mps 742 mmHg 84%
08:00 +2°C° 0.2 mm 3 mps 742 mmHg 81%
09:00 +3°C° 0.2 mm 3 mps 742 mmHg 75%
10:00 +4°C° 0.2 mm 4 mps 742 mmHg 69%
11:00 +4°C° 0.2 mm 4 mps 742 mmHg 63%
12:00 +5°C° 0.3 mm 5 mps 742 mmHg 59%
13:00 +4°C° 0.3 mm 6 mps 742 mmHg 56%
14:00 +5°C° 0.3 mm 6 mps 742 mmHg 53%
15:00 +4°C° 0.1 mm 6 mps 742 mmHg 54%
16:00 +4°C° 0.1 mm 6 mps 742 mmHg 55%
17:00 +4°C° 0.1 mm 6 mps 742 mmHg 56%
18:00 +3°C° 0 mm 5 mps 742 mmHg 63%
19:00 +1°C° 0 mm 4 mps 742 mmHg 70%
20:00 +1°C° 0 mm 3 mps 743 mmHg 78%
21:00 0°C° 0 mm 3 mps 743 mmHg 82%
22:00 0°C° 0 mm 3 mps 743 mmHg 85%
23:00 -1°C° 0 mm 3 mps 743 mmHg 89%
Show more